Location: Oshawa
(43.9000°N, 78.8670°W)
Time: 12:39:20
(UTC-04:00)

Cosmos 1821 Rocket - Visible Passes

Search period start: 24 June 2018 00:00
Search period end: 04 July 2018 00:00
Orbit: 945 x 1005 km, 82.9° (Epoch: 23 June)

Date Brightness Start Highest point End Pass type
(mag) Time Alt. Az. Time Alt. Az. Time Alt. Az.
24 Jun 6.0 01:13:03 10° NNE 01:17:39 21° ENE 01:22:16 10° ESE visible
24 Jun 4.0 02:57:19 10° NNW 03:03:38 69° W 03:07:09 28° S visible
25 Jun 5.2 01:37:35 10° N 01:43:19 35° ENE 01:47:21 18° SE visible
25 Jun 4.7 03:22:55 10° NNW 03:28:43 39° W 03:31:59 23° SW visible
26 Jun 4.4 02:02:31 10° N 02:08:49 60° E 02:12:11 28° SSE visible
26 Jun 5.4 03:48:55 10° NW 03:53:39 23° W 03:56:50 16° WSW visible
27 Jun 6.1 00:43:49 10° NNE 00:47:59 18° ENE 00:52:08 10° ESE visible
27 Jun 4.0 02:27:45 10° N 02:34:07 80° W 02:37:04 35° S visible
27 Jun 5.9 04:16:03 10° NW 04:18:25 12° WNW 04:20:46 10° W visible
28 Jun 5.4 01:08:11 10° N 01:13:43 30° ENE 01:17:19 18° ESE visible
28 Jun 4.5 02:53:15 10° NNW 02:59:16 46° W 03:01:56 30° SW visible
29 Jun 4.6 01:33:03 10° N 01:39:15 52° ENE 01:42:12 30° SE visible
29 Jun 5.2 03:19:07 10° NNW 03:24:14 26° W 03:26:51 20° WSW visible
30 Jun 6.2 00:14:42 10° NNE 00:18:17 15° ENE 00:21:53 10° E visible
30 Jun 4.0 01:58:12 10° N 02:04:36 88° E 02:07:08 40° S visible
30 Jun 5.8 03:45:45 10° NW 03:49:03 15° WNW 03:51:46 11° WSW visible
01 Jul 5.5 00:38:49 10° NNE 00:44:05 26° ENE 00:47:26 17° ESE visible
01 Jul 4.3 02:23:37 10° NNW 02:29:48 54° W 02:32:04 37° SW visible
02 Jul 4.8 01:03:35 10° N 01:09:40 45° ENE 01:12:22 30° SE visible
02 Jul 5.1 02:49:21 10° NNW 02:54:49 31° W 02:57:01 25° WSW visible
02 Jul 6.2 23:45:44 10° NE 23:48:34 13° ENE 23:51:25 10° E visible
03 Jul 4.1 01:28:40 10° N 01:35:05 77° E 01:37:20 43° SSE visible
03 Jul 5.7 03:15:42 10° NW 03:19:40 17° W 03:21:59 15° WSW visible
